{"data":{"norad_id":67598,"epoch":"2026-09-19T10:13:52.356288Z","epoch_age_seconds":161897,"freshness":"FRESH","line1":"1 67598U 26018K   26262.42630042  .00019849  00000+0  61559-3 0  9990","line2":"2 67598  97.2872 325.8640 0001040  91.3985 268.7377 15.33442800 37022","mean_motion":15.334428,"eccentricity":0.000104,"inclination_deg":97.2872,"raan_deg":325.864,"arg_perigee_deg":91.3985,"mean_anomaly_deg":268.7377,"bstar":0.00061559,"rev_number":3702,"period_min":93.906339382206,"perigee_km":464.83797671923,"apogee_km":466.26146355702,"semimajor_km":6843.6867201381,"source":"CELESTRAK","updated_at":"2026-09-20T09:00:43.603559Z"}}